Regional Weather Roundup
Issued by NWS

Home | Current Version | Previous Version | Text Only | Print | Product List | Glossary Off
Versions: 1 2 3 4 5 6 7 8 9 10 11 12 13 14 15 16 17 18 19 20 21 22 23 24 25 26 27 28 29 30 31 32 33 34 35 36 37 38 39 40 41 42 43 44 45 46 47 48 49 50

000
ASUS43 KDMX 142206
RWRIA

WEATHER ROUNDUP FOR IOWA
NATIONAL WEATHER SERVICE DES MOINES IA
400 PM CST THU DEC 14 2017

NOTE: "FAIR" INDICATES FEW OR NO CLOUDS BELOW 12,000 FEET WITH NO
SIGNIFICANT WEATHER AND/OR OBSTRUCTIONS TO VISIBILITY.

* - THESE STATIONS ARE NOT NWS STATIONS...THUS NOT UNDER NWS
QUALITY CONTROL.  THEY ALSO DO NOT REPORT WEATHER SUCH
AS PRECIPITATION OR FOG.

IAZ001>003-012>014-020>022-031>034-043>046-142300-
   NORTHWEST IOWA

CITY           SKY/WX    TMP DP  RH WIND       PRES   REMARKS
CARROLL *      CLOUDY    34  23  64 N12       30.05S WCI  25
CHEROKEE *     CLOUDY    33  28  79 NW6       30.06R WCI  28
DENISON *      CLOUDY    36  23  60 N6        30.08R WCI  31
LE MARS *      CLOUDY    37  27  65 NW7G14    30.06S WCI  32
ORANGE CITY *  CLOUDY    36  30  80 NW7       30.04S WCI  30
SHELDON *      CLOUDY    32  27  80 NW3       30.03S
SIOUX CITY     CLOUDY    38  25  59 NW7       30.07R WCI  33
SPENCER        CLOUDY    32  23  69 NW8       30.05R WCI  25
STORM LAKE *   MIX PCPN  32  25  74 NW10      30.04S WCI  24
$$

IAZ055>058-069>071-079>083-090>094-142300-
   SOUTHWEST IOWA

CITY           SKY/WX    TMP DP  RH WIND       PRES   REMARKS
ATLANTIC *     CLOUDY    36  25  64 N9        30.07R WCI  29
AUDUBON *      CLOUDY    34  25  69 CALM      30.06S
CLARINDA *     CLOUDY    39  27  60 NE6         N/A  WCI  35
COUNCIL BLFS * MOCLDY    39  27  60 N8        30.06R WCI  34
CRESTON *      CLOUDY    32  25  74 NW6       30.07S WCI  26
HARLAN  *      CLOUDY    36  23  60 N5G13     30.10R WCI  32
LAMONI         CLOUDY    33  23  66 W9        30.06S WCI  25
RED OAK *      CLOUDY    39  25  56 N7        30.07R WCI  34
SHENANDOAH *   CLOUDY    41  25  52 N10       30.07S
$$

IAZ047>049-059>061-072>074-084-142300-
   CENTRAL IOWA

CITY           SKY/WX    TMP DP  RH WIND       PRES   REMARKS
AMES           CLOUDY    31  21  66 NW7       30.06S WCI  24
ANKENY *       CLOUDY    30  19  64 W6        30.09R WCI  24
BOONE *        CLOUDY    32  21  64 NW7       30.04S WCI  26
CHARITON *     CLOUDY    32  19  59 NW8       30.06S WCI  25
DES MOINES     CLOUDY    32  19  58 NW5       30.07R WCI  27
GRINNELL*      CLOUDY    27  19  70 N8        30.07S WCI  19
KNOXVILLE *    CLOUDY    30  16  55 N5        30.06S WCI  25
MARSHALLTOWN   CLOUDY    28  19  69 NW9       30.05R WCI  19
NEWTON *       CLOUDY    28  18  64 W8        30.07R WCI  20
PELLA *        CLOUDY    29  18  64 N5        30.09S WCI  24
PERRY *        CLOUDY    32  20  62 NW6       30.06S WCI  26
$$

IAZ004>006-015-016-023>025-035-036-142300-
   NORTH CENTRAL IOWA

CITY           SKY/WX    TMP DP  RH WIND       PRES   REMARKS
ALGONA *       CLOUDY    32  23  69 NW9       30.03S WCI  24
CLARION *      CLOUDY    30  23  74 NW10      30.04R WCI  21
ESTHERVILLE    CLOUDY    29  21  72 NW10      30.03R WCI  20
FORT DODGE *   CLOUDY    31  22  69 NW5       30.05S WCI  26
MASON CITY     CLOUDY    25  18  74 NW12      30.04R WCI  14
FOREST CITY *  CLOUDY    28  21  74 NW7       30.03S WCI  21
WEBSTER CITY * CLOUDY    30  21  69 NW8       30.03S WCI  23
IOWA FALLS *   CLOUDY    29  20  69 NW7       30.05S WCI  22
$$

IAZ007>011-017>019-026>030-037>042-050>054-066-142300-
   NORTHEAST IOWA

CITY           SKY/WX    TMP DP  RH WIND       PRES   REMARKS
CEDAR RAPIDS   CLOUDY    25  16  68 W9        30.06R WCI  15
CHARLES CITY * CLOUDY    25  18  74 NW9G15    30.04R WCI  15
CLINTON *      CLOUDY    26  16  65 SW7       30.07S WCI  18
DECORAH *      CLOUDY    25  16  68 VRB5G12   30.01S WCI  19
DUBUQUE        PTCLDY    24  15  68 W7        30.03S WCI  16
MONTICELLO *   CLOUDY    27  16  63 W9        30.06R WCI  17
OELWEIN *      CLOUDY    27  18  69 W13       30.04R WCI  16
WATERLOO       CLOUDY    26  15  63 W6        30.05R WCI  19
$$

IAZ064-065-067-068-078-142300-
   EAST CENTRAL IOWA

CITY           SKY/WX    TMP DP  RH WIND       PRES   REMARKS
DAVENPORT      CLOUDY    27  16  63 W9        30.09S WCI  18
IOWA CITY      CLOUDY    27  16  63 W9        30.10R WCI  18
MT. PLEASANT * CLOUDY    27  16  62 W7        30.09R WCI  20
MUSCATINE *    CLOUDY    28  16  59 W3        30.10R
QUAD CITIES    CLOUDY    28  16  60 W5        30.07S WCI  23
$$

IAZ062-063-075>077-085>089-095>099-142300-
   SOUTHEAST IOWA

CITY           SKY/WX    TMP DP  RH WIND       PRES   REMARKS
BURLINGTON     CLOUDY    29  18  63 NW7       30.08R WCI  22
FAIRFIELD *    CLOUDY    28  16  59 W5        30.07S WCI  23
FORT MADISON * CLOUDY    28  18  64 NW7       30.09R WCI  21
KEOKUK *       CLOUDY    28  18  64 W8        30.08R WCI  20
OSKALOOSA *    CLOUDY    28  18  67 N9        30.08R WCI  19
OTTUMWA        CLOUDY    29  16  58 W10       30.07R WCI  20
WASHINGTON *   CLOUDY    27  18  69 W6        30.10R WCI  20
$$

ABBREVIATIONS USED IN REMARKS
   TC - TEMPERATURES IN CELSIUS
  WCI - WIND CHILL INDEX
   HX - HEAT INDEX
  VSB - VISIBILITY
$$





USA.gov is the U.S. government's official web portal to all federal, state and local government web resources and services.